Location: Unspecified
(0.0000°N, 0.0000°E)
Time: 00:09:08
(UTC+02:00)

CZ-4B R/B - Visible Passes

Search period start: 24 April 2014 00:00
Search period end: 04 May 2014 00:00
Orbit: 494 x 680 km, 97.6° (Epoch: 22 April)

Date Brightness Start Highest point End Pass type
(mag) Time Alt. Az. Time Alt. Az. Time Alt. Az.
24 Apr 5.1 06:56:02 10° NW 06:56:18 11° NW 06:56:18 11° NW visible
25 Apr 5.9 05:26:39 10° NE 05:27:08 13° NE 05:27:08 13° NE visible
26 Apr 5.6 05:33:27 10° NE 05:34:27 16° NE 05:34:27 16° NE visible
27 Apr 5.3 05:40:18 10° NNE 05:41:45 20° NE 05:41:45 20° NE visible
28 Apr 4.9 05:47:13 10° NNE 05:49:02 25° NNE 05:49:02 25° NNE visible
29 Apr 4.6 05:54:10 10° NNE 05:56:18 30° NNE 05:56:18 30° NNE visible
30 Apr 4.3 06:01:10 10° N 06:03:33 34° N 06:03:33 34° N visible
01 May 4.0 06:08:12 10° N 06:10:48 37° N 06:10:48 37° N visible
02 May 3.9 06:15:16 10° N 06:18:01 37° NNW 06:18:01 37° NNW visible
03 May 4.0 06:22:23 10° N 06:25:13 34° NW 06:25:13 34° NW visible
